Proserpine Hamilton Isla, Australia

4:10 PM AEST on February 27, 2017 (GMT +1000)
Hamilton Island

Weather History for YBHM - August, 2013

Change the Weather History Date:

Wednesday, August 21, 2013

  Actual Average Record
Temperature  
Mean Temperature 68 °F -  
Max Temperature 69 °F - - ()
Min Temperature 66 °F - - ()
Cooling Degree Days 2    
Growing Degree Days 18 (Base 50)    
Moisture  
Dew Point 61 °F    
Average Humidity 79    
Maximum Humidity 94    
Minimum Humidity 58    
Precipitation  
Precipitation 0.00 in - - ()
Sea Level Pressure  
Sea Level Pressure 29.99 in    
Wind  
Wind Speed 10 mph ()    
Max Wind Speed 25 mph    
Max Gust Speed -    
T = Trace of Precipitation, MM = Missing Value Source: Averaged Metar Reports

Daily Weather History Graph

Daily Weather History Graph

Search for Another Location

Airport or City:

Trip Planner

Search our weather history database for the weather conditions in past years. The results will help you decide how hot, cold, wet, or windy it might be!

Date:

Astronomy

Aug. 21, 2013 Rise Set
Actual Time 6:22 AM AEST 5:52 PM AEST
Civil Twilight 5:59 AM AEST 6:15 PM AEST
Nautical Twilight 5:33 AM AEST 6:41 PM AEST
Astronomical Twilight 5:07 AM AEST 7:07 PM AEST
Moon 6:04 PM AEST (8/21) 6:00 AM AEST (8/21)
Length of Visible Light 12h 15m
Length of Day
11h 30m
Full, 100% of the Moon is Illuminated
Aug 21
Full
Aug 28
Last Quarter
Sep 5
New
Sep 13
First Quarter
Sep 19
Full

Hourly Weather History & Observations

Time (AEST) Temp. Dew Point Humidity Pressure Visibility Wind Dir Wind Speed Gust Speed Precip Events Conditions
12:00 AM 67 °F 63 °F 84% 29.97 in - Calm Calm - -  
12:00 AM 68.0 °F 62.6 °F 83% 29.95 in - Calm Calm - N/A   Unknown
12:30 AM 68.0 °F 64.4 °F 88% 29.95 in - SW 1.2 mph - N/A   Unknown
1:00 AM 68.0 °F 64.4 °F 88% 29.95 in - SSW 5.8 mph - N/A   Unknown
1:30 AM 66.2 °F 62.6 °F 88% 29.95 in - South 5.8 mph - N/A   Unknown
2:00 AM 68.0 °F 64.4 °F 88% 29.95 in - SSE 3.5 mph - N/A   Unknown
2:30 AM 66.2 °F 64.4 °F 94% 29.95 in - South 8.1 mph - N/A   Unknown
3:00 AM 67 °F 63 °F 84% 29.94 in - South 9.2 mph - -  
3:00 AM 66.2 °F 62.6 °F 88% 29.95 in - South 9.2 mph - N/A   Unknown
3:30 AM 68.0 °F 62.6 °F 83% 29.95 in - South 8.1 mph - N/A   Unknown
4:00 AM 68.0 °F 64.4 °F 88% 29.95 in - SSE 9.2 mph - N/A   Unknown
4:30 AM 66.2 °F 62.6 °F 88% 29.95 in - South 10.4 mph - N/A   Unknown
5:00 AM 66.2 °F 60.8 °F 83% 29.95 in - South 11.5 mph - N/A   Unknown
5:30 AM 68.0 °F 64.4 °F 88% 29.95 in - South 10.4 mph - N/A   Unknown
6:00 AM 67 °F 63 °F 81% 29.98 in - SSE 17.3 mph - -  
6:00 AM 68.0 °F 62.6 °F 83% 29.98 in - SSE 17.3 mph - N/A   Unknown
6:30 AM 68.0 °F 64.4 °F 88% 29.98 in - SSE 19.6 mph - N/A   Unknown
7:00 AM 68.0 °F 60.8 °F 78% 30.01 in - SSE 23.0 mph - N/A   Unknown
7:30 AM 68.0 °F 60.8 °F 78% 30.01 in - SE 23.0 mph - N/A   Unknown
9:00 AM 69 °F 58 °F 59% 30.04 in - SE 23.0 mph - -  
9:00 AM 69.8 °F 57.2 °F 64% 30.04 in - SE 23.0 mph - N/A   Unknown
10:30 AM 69.8 °F 57.2 °F 64% 30.04 in - SSE 25.3 mph - N/A   Unknown
11:30 AM 69.8 °F 59.0 °F 68% 30.01 in - SE 24.2 mph - N/A   Unknown
12:00 PM 69 °F 58 °F 58% 30.03 in - SE 21.9 mph - -  
12:00 PM 69.8 °F 57.2 °F 64% 30.01 in - SE 21.9 mph - N/A   Unknown
12:30 PM 69.8 °F 59.0 °F 68% 30.01 in - SE 19.6 mph - N/A   Unknown
2:30 PM 69.8 °F 59.0 °F 68% 29.98 in - ESE 18.4 mph - N/A   Unknown
3:30 PM 68.0 °F 59.0 °F 73% 29.95 in - ESE 16.1 mph - N/A   Unknown
4:00 PM 66.2 °F 57.2 °F 73% 29.95 in - East 16.1 mph - N/A   Unknown
5:30 PM 66.2 °F 59.0 °F 78% 29.98 in - ESE 17.3 mph - N/A   Unknown
6:00 PM 66.2 °F 59.0 °F 78% 29.98 in - ESE 17.3 mph - N/A   Unknown
6:30 PM 66.2 °F 59.0 °F 78% 29.98 in - ESE 17.3 mph - N/A   Unknown
7:00 PM 66.2 °F 60.8 °F 83% 29.98 in - ESE 16.1 mph - N/A   Unknown
7:30 PM 66.2 °F 60.8 °F 83% 30.01 in - ESE 16.1 mph - N/A   Unknown
8:30 PM 66.2 °F 60.8 °F 83% 30.04 in - ESE 15.0 mph - N/A   Unknown
9:00 PM 66 °F 60 °F 76% 30.04 in - East 13.8 mph - -  
9:00 PM 66.2 °F 60.8 °F 83% 30.04 in - East 13.8 mph - N/A   Unknown
9:30 PM 66.2 °F 59.0 °F 78% 30.04 in - East 13.8 mph - N/A   Unknown
10:00 PM 66.2 °F 60.8 °F 83% 30.04 in - ESE 12.7 mph - N/A   Unknown
10:30 PM 66.2 °F 60.8 °F 83% 30.04 in - ESE 12.7 mph - N/A   Unknown
11:00 PM 66.2 °F 60.8 °F 83% 30.04 in - ESE 12.7 mph - N/A   Unknown
11:30 PM 66.2 °F 60.8 °F 83% 30.04 in - ESE 13.8 mph - N/A   Unknown